When you browse on this site, cookies collect data to enhance your experience and personalize the content and advertising you see.
Visit our Privacy Policy to learn more. By continuing to use the site, you agree to this use of cookies and data.
  • In Hungary
  • List of Countries
  • For 7 days
  • Water Temperature
  • Satellite Maps
  • Weather Map
  • News
  • Weather Widgets
  • user-avatar
    Login

    Hourly Weather Nanacamilpa

    Today, 16 February, Saturday

    Time Temperature Precipitation Wind Pressure Humidity
    00:00 +13°C° 0 mm 1 mps 548 mmHg 64%
    01:00 +13°C° 0 mm 1 mps 548 mmHg 65%
    02:00 +13°C° 0 mm 1 mps 547 mmHg 66%
    03:00 +12°C° 0 mm 1 mps 547 mmHg 65%
    04:00 +12°C° 0 mm 1 mps 547 mmHg 65%
    05:00 +12°C° 0 mm 1 mps 547 mmHg 64%
    06:00 +13°C° 0 mm 1 mps 548 mmHg 57%
    07:00 +15°C° 0 mm 1 mps 549 mmHg 51%
    08:00 +18°C° 0 mm 1 mps 550 mmHg 44%
    09:00 +20°C° 0 mm 1 mps 551 mmHg 39%
    10:00 +22°C° 0 mm 1 mps 551 mmHg 33%
    11:00 +23°C° 0 mm 1 mps 552 mmHg 28%
    12:00 +24°C° 0 mm 1 mps 552 mmHg 27%
    13:00 +25°C° 0 mm 2 mps 551 mmHg 27%
    14:00 +25°C° 0 mm 2 mps 551 mmHg 26%
    15:00 +24°C° 0 mm 3 mps 550 mmHg 29%
    16:00 +22°C° 0 mm 3 mps 550 mmHg 32%
    17:00 +21°C° 0 mm 4 mps 549 mmHg 35%
    18:00 +20°C° 0 mm 3 mps 549 mmHg 39%
    19:00 +18°C° 0 mm 3 mps 549 mmHg 43%
    20:00 +16°C° 0 mm 2 mps 548 mmHg 46%
    21:00 +16°C° 0 mm 2 mps 548 mmHg 46%
    22:00 +15°C° 0 mm 1 mps 548 mmHg 46%
    23:00 +15°C° 0 mm 1 mps 548 mmHg 46%

    Tomorrow, 17 February, Sunday

    Time Temperature Precipitation Wind Pressure Humidity
    00:00 +14°C° 0 mm 1 mps 547 mmHg 47%
    01:00 +14°C° 0 mm 1 mps 547 mmHg 47%
    02:00 +13°C° 0 mm 1 mps 547 mmHg 47%
    03:00 +13°C° 0 mm 1 mps 547 mmHg 47%
    04:00 +13°C° 0 mm 1 mps 547 mmHg 48%
    05:00 +12°C° 0 mm 1 mps 547 mmHg 48%
    06:00 +14°C° 0 mm 1 mps 548 mmHg 44%
    07:00 +15°C° 0 mm 1 mps 549 mmHg 40%
    08:00 +18°C° 0 mm 1 mps 550 mmHg 36%
    09:00 +19°C° 0 mm 2 mps 551 mmHg 32%
    10:00 +21°C° 0 mm 2 mps 552 mmHg 28%
    11:00 +24°C° 0 mm 2 mps 553 mmHg 25%
    12:00 +24°C° 0 mm 3 mps 552 mmHg 23%
    13:00 +25°C° 0 mm 3 mps 552 mmHg 20%
    14:00 +25°C° 0 mm 3 mps 552 mmHg 18%
    15:00 +24°C° 0 mm 3 mps 551 mmHg 20%
    16:00 +22°C° 0 mm 4 mps 551 mmHg 22%
    17:00 +21°C° 0 mm 4 mps 550 mmHg 24%
    18:00 +19°C° 0 mm 3 mps 550 mmHg 28%
    19:00 +17°C° 0 mm 3 mps 549 mmHg 32%
    20:00 +15°C° 0 mm 2 mps 549 mmHg 36%
    21:00 +15°C° 0 mm 2 mps 549 mmHg 37%
    22:00 +14°C° 0 mm 2 mps 549 mmHg 38%
    23:00 +13°C° 0 mm 2 mps 549 mmHg 40%

    Day after tomorrow, 18 February, Monday

    Time Temperature Precipitation Wind Pressure Humidity
    00:00 +13°C° 0 mm 1 mps 548 mmHg 42%
    01:00 +12°C° 0 mm 1 mps 548 mmHg 45%
    02:00 +12°C° 0 mm 1 mps 547 mmHg 48%
    03:00 +12°C° 0 mm 1 mps 547 mmHg 48%
    04:00 +11°C° 0 mm 1 mps 547 mmHg 49%
    05:00 +11°C° 0 mm 1 mps 547 mmHg 50%
    06:00 +12°C° 0 mm 1 mps 548 mmHg 45%
    07:00 +14°C° 0 mm 1 mps 550 mmHg 40%
    08:00 +16°C° 0 mm 1 mps 551 mmHg 35%
    09:00 +18°C° 0 mm 2 mps 552 mmHg 32%
    10:00 +20°C° 0 mm 3 mps 553 mmHg 28%
    11:00 +22°C° 0 mm 3 mps 553 mmHg 24%
    12:00 +22°C° 0 mm 4 mps 553 mmHg 23%
    13:00 +23°C° 0 mm 4 mps 552 mmHg 22%
    14:00 +23°C° 0 mm 5 mps 552 mmHg 21%
    15:00 +22°C° 0 mm 4 mps 551 mmHg 22%
    16:00 +21°C° 0 mm 4 mps 551 mmHg 24%
    17:00 +20°C° 0 mm 4 mps 550 mmHg 26%
    18:00 +18°C° 0 mm 3 mps 550 mmHg 30%
    19:00 +16°C° 0 mm 3 mps 549 mmHg 33%
    20:00 +14°C° 0 mm 2 mps 549 mmHg 36%
    21:00 +14°C° 0 mm 2 mps 549 mmHg 38%
    22:00 +13°C° 0 mm 2 mps 549 mmHg 39%
    23:00 +13°C° 0 mm 2 mps 548 mmHg 41%

    19 February, Tuesday

    Time Temperature Precipitation Wind Pressure Humidity
    00:00 +12°C° 0 mm 2 mps 548 mmHg 44%
    01:00 +12°C° 0 mm 1 mps 547 mmHg 46%
    02:00 +11°C° 0 mm 1 mps 547 mmHg 49%
    03:00 +11°C° 0 mm 1 mps 546 mmHg 48%
    04:00 +10°C° 0 mm 1 mps 546 mmHg 47%
    05:00 +10°C° 0 mm 1 mps 546 mmHg 46%
    06:00 +10°C° 0 mm 2 mps 547 mmHg 40%
    07:00 +13°C° 0 mm 2 mps 548 mmHg 35%
    08:00 +15°C° 0 mm 2 mps 550 mmHg 30%
    09:00 +17°C° 0 mm 3 mps 550 mmHg 25%
    10:00 +19°C° 0 mm 4 mps 551 mmHg 21%
    11:00 +21°C° 0 mm 5 mps 552 mmHg 17%
    12:00 +21°C° 0 mm 5 mps 551 mmHg 15%
    13:00 +21°C° 0 mm 5 mps 551 mmHg 13%
    14:00 +22°C° 0 mm 5 mps 550 mmHg 12%
    15:00 +21°C° 0 mm 5 mps 549 mmHg 14%
    16:00 +19°C° 0 mm 5 mps 549 mmHg 17%
    17:00 +18°C° 0 mm 4 mps 548 mmHg 19%
    18:00 +16°C° 0 mm 3 mps 548 mmHg 24%
    19:00 +14°C° 0 mm 3 mps 547 mmHg 29%
    20:00 +13°C° 0 mm 2 mps 547 mmHg 34%
    21:00 +13°C° 0 mm 2 mps 547 mmHg 37%
    22:00 +12°C° 0 mm 2 mps 547 mmHg 41%
    23:00 +12°C° 0 mm 2 mps 546 mmHg 44%

    20 February, Wednesday

    Time Temperature Precipitation Wind Pressure Humidity
    00:00 +10°C° 0 mm 2 mps 546 mmHg 48%
    01:00 +10°C° 0 mm 2 mps 545 mmHg 51%
    02:00 +9°C° 0 mm 2 mps 545 mmHg 55%
    03:00 +9°C° 0 mm 2 mps 545 mmHg 56%
    04:00 +8°C° 0 mm 2 mps 544 mmHg 57%
    05:00 +8°C° 0 mm 2 mps 544 mmHg 59%
    06:00 +9°C° 0 mm 2 mps 545 mmHg 53%
    07:00 +12°C° 0 mm 2 mps 546 mmHg 47%
    08:00 +13°C° 0 mm 2 mps 548 mmHg 42%
    09:00 +14°C° 0 mm 3 mps 548 mmHg 35%
    10:00 +17°C° 0 mm 3 mps 549 mmHg 28%
    11:00 +20°C° 0 mm 4 mps 550 mmHg 22%
    12:00 +20°C° 0 mm 4 mps 550 mmHg 20%
    13:00 +21°C° 0 mm 4 mps 549 mmHg 18%
    14:00 +21°C° 0 mm 4 mps 549 mmHg 16%
    15:00 +20°C° 0 mm 4 mps 548 mmHg 18%
    16:00 +19°C° 0 mm 4 mps 548 mmHg 20%
    17:00 +17°C° 0 mm 5 mps 547 mmHg 22%
    18:00 +15°C° 0 mm 4 mps 547 mmHg 26%
    19:00 +13°C° 0 mm 3 mps 547 mmHg 30%
    20:00 +13°C° 0 mm 2 mps 546 mmHg 35%
    21:00 +12°C° 0 mm 2 mps 546 mmHg 35%
    22:00 +10°C° 0 mm 2 mps 546 mmHg 35%
    23:00 +10°C° 0 mm 2 mps 546 mmHg 35%

    21 February, Thursday

    Time Temperature Precipitation Wind Pressure Humidity
    00:00 +9°C° 0 mm 2 mps 545 mmHg 37%
    01:00 +9°C° 0 mm 2 mps 545 mmHg 39%
    02:00 +8°C° 0 mm 2 mps 545 mmHg 41%
    03:00 +8°C° 0 mm 2 mps 545 mmHg 42%
    04:00 +8°C° 0 mm 2 mps 544 mmHg 43%
    05:00 +7°C° 0 mm 2 mps 544 mmHg 44%
    06:00 +9°C° 0 mm 2 mps 546 mmHg 39%
    07:00 +12°C° 0 mm 2 mps 547 mmHg 34%
    08:00 +14°C° 0 mm 2 mps 548 mmHg 29%
    09:00 +16°C° 0 mm 2 mps 549 mmHg 25%
    10:00 +18°C° 0 mm 3 mps 550 mmHg 20%
    11:00 +20°C° 0 mm 4 mps 551 mmHg 16%
    12:00 +21°C° 0 mm 4 mps 550 mmHg 15%
    13:00 +21°C° 0 mm 4 mps 550 mmHg 15%
    14:00 +22°C° 0 mm 4 mps 550 mmHg 15%
    15:00 +21°C° 0 mm 4 mps 549 mmHg 17%
    16:00 +20°C° 0 mm 4 mps 549 mmHg 20%
    17:00 +19°C° 0 mm 4 mps 549 mmHg 23%
    18:00 +17°C° 0 mm 3 mps 548 mmHg 26%
    19:00 +14°C° 0 mm 3 mps 548 mmHg 30%
    20:00 +13°C° 0 mm 2 mps 548 mmHg 34%
    21:00 +13°C° 0 mm 2 mps 547 mmHg 35%
    22:00 +12°C° 0 mm 1 mps 547 mmHg 36%
    23:00 +12°C° 0 mm 1 mps 547 mmHg 37%
    Show more